TimeCST,TemperatureF,Dew PointF,Humidity,Sea Level PressureIn,VisibilityMPH,Wind Direction,Wind SpeedMPH,Gust SpeedMPH,PrecipitationIn,Events,Conditions,WindDirDegrees,DateUTC
12:15 AM,33.8,33.8,100,29.65,0.2,SSE,10.4,-,N/A,Fog,Fog,150,2013-01-11 06:15:00
12:35 AM,33.8,33.8,100,29.64,0.2,SSE,9.2,-,N/A,Fog,Fog,160,2013-01-11 06:35:00
12:55 AM,33.8,33.8,100,29.64,0.2,South,8.1,-,N/A,Fog,Fog,180,2013-01-11 06:55:00
1:15 AM,33.8,33.8,100,29.63,0.2,South,8.1,-,N/A,Fog,Fog,180,2013-01-11 07:15:00
1:35 AM,33.8,33.8,100,29.63,0.2,South,8.1,-,N/A,Fog,Fog,170,2013-01-11 07:35:00
1:55 AM,33.8,33.8,100,29.62,0.2,South,9.2,-,N/A,Fog,Fog,170,2013-01-11 07:55:00
2:15 AM,33.8,33.8,100,29.63,0.2,SSE,12.7,-,N/A,Fog,Fog,160,2013-01-11 08:15:00
2:35 AM,33.8,33.8,100,29.62,0.2,SSE,12.7,-,N/A,Fog,Fog,160,2013-01-11 08:35:00
2:55 AM,35.6,35.6,100,29.61,0.2,SSE,10.4,-,N/A,Fog,Fog,150,2013-01-11 08:55:00
3:35 AM,33.8,33.8,100,29.59,0.2,South,12.7,-,N/A,Fog,Fog,170,2013-01-11 09:35:00
3:55 AM,33.8,33.8,100,29.59,0.2,South,12.7,-,N/A,Fog,Fog,180,2013-01-11 09:55:00
4:15 AM,33.8,33.8,100,29.57,0.2,South,9.2,-,N/A,Fog,Fog,180,2013-01-11 10:15:00
4:35 AM,33.8,33.8,100,29.58,0.2,SW,9.2,-,N/A,Fog,Fog,220,2013-01-11 10:35:00
4:55 AM,33.8,33.8,100,29.57,0.2,SSW,6.9,-,N/A,Fog,Fog,210,2013-01-11 10:55:00
5:15 AM,33.8,33.8,100,29.56,0.2,South,6.9,-,N/A,Fog,Fog,190,2013-01-11 11:15:00
5:35 AM,33.8,33.8,100,29.57,0.2,South,9.2,-,N/A,Fog,Fog,180,2013-01-11 11:35:00
5:55 AM,33.8,33.8,100,29.55,0.2,SSE,8.1,-,N/A,Fog,Fog,160,2013-01-11 11:55:00
6:15 AM,33.8,33.8,100,29.55,0.2,South,9.2,-,N/A,Fog,Fog,170,2013-01-11 12:15:00
6:35 AM,33.8,33.8,100,29.54,0.2,SSE,11.5,-,N/A,Fog,Fog,160,2013-01-11 12:35:00
6:55 AM,33.8,33.8,100,29.55,0.2,SSE,15.0,-,N/A,Fog,Fog,160,2013-01-11 12:55:00
7:15 AM,33.8,33.8,100,29.55,0.2,South,12.7,-,N/A,Fog,Fog,170,2013-01-11 13:15:00
7:35 AM,33.8,33.8,100,29.55,0.2,South,11.5,-,N/A,Fog,Fog,170,2013-01-11 13:35:00
7:55 AM,33.8,33.8,100,29.55,0.2,South,11.5,-,N/A,Fog,Fog,170,2013-01-11 13:55:00
8:15 AM,33.8,33.8,100,29.54,0.2,South,12.7,-,N/A,Fog,Fog,170,2013-01-11 14:15:00
8:35 AM,33.8,33.8,100,29.52,0.2,SSE,12.7,-,N/A,,Overcast,150,2013-01-11 14:35:00
8:55 AM,33.8,33.8,100,29.54,0.2,South,13.8,-,N/A,Fog,Fog,180,2013-01-11 14:55:00
9:15 AM,33.8,33.8,100,29.54,0.2,South,11.5,-,N/A,Fog,Fog,180,2013-01-11 15:15:00
9:35 AM,33.8,33.8,100,29.53,0.2,South,9.2,-,N/A,Fog,Fog,180,2013-01-11 15:35:00
9:55 AM,35.6,35.6,100,29.53,0.2,South,5.8,-,N/A,Fog,Fog,190,2013-01-11 15:55:00
10:15 AM,35.6,35.6,100,29.52,0.2,SSE,4.6,-,N/A,Fog,Fog,160,2013-01-11 16:15:00
10:35 AM,35.6,35.6,100,29.51,0.2,SSE,8.1,-,N/A,,Overcast,150,2013-01-11 16:35:00
10:55 AM,35.6,35.6,100,29.48,0.2,SSE,10.4,-,N/A,Fog,Fog,150,2013-01-11 16:55:00
11:15 AM,35.6,35.6,100,29.47,-9999.0,SSE,11.5,-,N/A,,Unknown,150,2013-01-11 17:15:00
11:55 AM,35.6,35.6,100,29.44,0.2,SSE,11.5,-,N/A,Fog,Fog,160,2013-01-11 17:55:00
12:15 PM,37.4,37.4,100,29.44,0.2,SSE,9.2,-,N/A,Fog,Fog,160,2013-01-11 18:15:00
12:35 PM,37.4,37.4,100,29.42,0.2,SSE,8.1,-,N/A,Fog,Fog,160,2013-01-11 18:35:00
12:55 PM,37.4,37.4,100,29.41,0.2,SSE,9.2,-,N/A,Fog,Fog,160,2013-01-11 18:55:00
1:15 PM,37.4,37.4,100,29.40,0.2,SSE,9.2,-,N/A,Fog,Fog,160,2013-01-11 19:15:00
1:35 PM,39.2,39.2,100,29.40,0.2,SSE,10.4,-,N/A,Fog,Fog,160,2013-01-11 19:35:00
2:15 PM,39.2,39.2,100,29.39,0.2,South,9.2,-,N/A,Fog,Fog,170,2013-01-11 20:15:00
2:35 PM,39.2,39.2,100,29.39,0.2,South,5.8,-,N/A,Fog,Fog,190,2013-01-11 20:35:00
2:55 PM,39.2,39.2,100,29.39,0.5,South,5.8,-,N/A,Fog,Fog,180,2013-01-11 20:55:00
3:15 PM,41.0,41.0,100,29.40,1.0,South,9.2,-,N/A,,Overcast,190,2013-01-11 21:15:00
3:35 PM,41.0,41.0,100,29.39,0.2,SSE,8.1,-,N/A,Fog,Fog,160,2013-01-11 21:35:00
3:55 PM,41.0,41.0,100,29.39,1.0,South,9.2,-,N/A,,Overcast,170,2013-01-11 21:55:00
4:15 PM,41.0,41.0,100,29.38,0.2,SSE,10.4,-,N/A,Fog,Fog,160,2013-01-11 22:15:00
4:35 PM,39.2,39.2,100,29.37,0.2,SSE,10.4,-,N/A,Fog,Fog,150,2013-01-11 22:35:00
4:55 PM,39.2,39.2,100,29.36,-9999.0,SSE,8.1,-,N/A,,Mostly Cloudy,150,2013-01-11 22:55:00
5:15 PM,39.2,39.2,100,29.39,0.2,South,5.8,-,N/A,Fog,Fog,190,2013-01-11 23:15:00
5:35 PM,39.2,39.2,100,29.39,0.2,SSW,4.6,-,N/A,Fog,Fog,200,2013-01-11 23:35:00
5:55 PM,39.2,39.2,100,29.38,0.2,South,4.6,-,N/A,Fog,Fog,170,2013-01-11 23:55:00
6:15 PM,39.2,39.2,100,29.38,0.2,SSE,6.9,-,N/A,Fog,Fog,160,2013-01-12 00:15:00
6:35 PM,39.2,39.2,100,29.40,0.2,SSW,5.8,-,N/A,Fog,Fog,200,2013-01-12 00:35:00
6:55 PM,37.4,37.4,100,29.40,0.2,SW,5.8,-,N/A,Fog,Fog,220,2013-01-12 00:55:00
7:15 PM,39.2,39.2,100,29.40,0.8,SW,10.4,-,N/A,,Overcast,230,2013-01-12 01:15:00
7:35 PM,39.2,39.2,100,29.41,5.0,WSW,12.7,-,N/A,,Overcast,250,2013-01-12 01:35:00
7:55 PM,39.2,39.2,100,29.41,4.0,West,15.0,-,N/A,,Overcast,260,2013-01-12 01:55:00
8:15 PM,35.6,35.6,100,29.42,1.8,West,11.5,17.3,N/A,,Overcast,280,2013-01-12 02:15:00
8:35 PM,33.8,33.8,100,29.43,2.5,West,15.0,-,N/A,,Overcast,280,2013-01-12 02:35:00
8:55 PM,33.8,33.8,100,29.44,9.0,WNW,16.1,-,N/A,,Overcast,290,2013-01-12 02:55:00
9:15 PM,33.8,33.8,100,29.45,8.0,WNW,17.3,-,N/A,,Overcast,290,2013-01-12 03:15:00
9:35 PM,32.0,32.0,100,29.46,2.5,West,20.7,-,N/A,,Overcast,280,2013-01-12 03:35:00
9:55 PM,32.0,32.0,100,29.46,8.0,WNW,20.7,-,N/A,,Overcast,290,2013-01-12 03:55:00
10:15 PM,-9999,-9999,N/A,29.45,5.0,WNW,21.9,-,N/A,,Overcast,290,2013-01-12 04:15:00